Location: Unspecified
(0.0000°N, 0.0000°E)
Time: 05:56:53
(UTC+00:00)

Tiros 1 - Pass Details

Date: 05 October 2020
Orbit: 630 x 663 km, 48.4° (Epoch: 28 October)

Event Time Altitude Azimuth Distance (km) Brightness Sun altitude
Rises 19:48:28 0° 344° (NNW) 2,975 10.7 -29.9°
Enters shadow 19:49:17 - 347° (NNW) 2,690 10.4 -30.1°
Reaches altitude 10° 19:51:13 10° 358° (N) 2,067 - -30.6°
Maximum altitude 19:54:59 23° 51° (NE) 1,391 - -31.6°
Drops below altitude 10° 19:58:46 10° 103° (ESE) 2,072 - -32.5°
Sets 20:01:31 0° 117° (ESE) 2,983 - -33.2°
